This is the latest recevied weather packets stored in our database for station/object N7IGG. If no packets are shown the sender has not sent any weather packets the latest 10 day(s).
| Time | Temp. | Humidity | Pressure | Rain* | Wind** | Luminosity | Snow |
|---|---|---|---|---|---|---|---|
| 1777930352 | 21.11° C | 64% | 1010.6 hPa | 0 mm | - | 571 W/m² | - |
| 1777930049 | 21.67° C | 64% | 1010.7 hPa | 0 mm | - | 607 W/m² | - |
| 1777929745 | 21.11° C | 64% | 1010.6 hPa | 0 mm | - | 626 W/m² | - |
| 1777929443 | 21.67° C | 61% | 1010.6 hPa | 0 mm | - | 598 W/m² | - |
| 1777929139 | 21.67° C | 63% | 1010.7 hPa | 0 mm | - | 657 W/m² | - |
| 1777928837 | 21.11° C | 64% | 1010.6 hPa | 0 mm | - | 692 W/m² | - |
| 1777928534 | 21.67° C | 62% | 1010.8 hPa | 0 mm | - | 602 W/m² | - |
| 1777928230 | 21.67° C | 64% | 1010.7 hPa | 0 mm | - | 630 W/m² | - |
| 1777927928 | 21.11° C | 65% | 1010.8 hPa | 0 mm | - | 628 W/m² | - |
| 1777927626 | 20.56° C | 66% | 1010.6 hPa | 0 mm | - | 703 W/m² | - |
| 1777927341 | 20.56° C | 65% | 1010.9 hPa | 0 mm | - | 686 W/m² | - |
| 1777927023 | 20.56° C | 66% | 1011 hPa | 0 mm | - | 684 W/m² | - |
| 1777926721 | 20.56° C | 68% | 1011 hPa | 0 mm | - | 563 W/m² | - |
| 1777926420 | 19.44° C | 69% | 1010.8 hPa | 0 mm | - | 711 W/m² | - |
| 1777926118 | 19.44° C | 69% | 1010.9 hPa | 0 mm | - | 728 W/m² | - |
| 1777925815 | 19.44° C | 69% | 1010.8 hPa | 0 mm | - | 658 W/m² | - |
| 1777925527 | 18.89° C | 71% | 1010.8 hPa | 0 mm | - | 542 W/m² | - |
| 1777925209 | 18.89° C | 71% | 1010.8 hPa | 0 mm | - | 517 W/m² | - |
| 1777924906 | 18.89° C | 72% | 1010.8 hPa | 0 mm | - | 577 W/m² | - |
| 1777924602 | 18.89° C | 72% | 1010.9 hPa | 0 mm | - | 606 W/m² | - |
| 1777924298 | 18.89° C | 73% | 1010.9 hPa | 0 mm | - | 643 W/m² | - |
| 1777923995 | 18.89° C | 73% | 1011 hPa | 0 mm | - | 630 W/m² | - |
| 1777923691 | 18.89° C | 74% | 1010.9 hPa | 0 mm | - | 624 W/m² | - |
| 1777923387 | 18.89° C | 73% | 1011 hPa | 0 mm | - | 595 W/m² | - |
| 1777923086 | 18.33° C | 73% | 1011 hPa | 0 mm | - | 579 W/m² | - |
* Rain latest hour (hover to see other rain measurements)
** Current wind speed in m/s (hover to see current wind gust speed)